Regional Weather Roundup
Issued by NWS Sioux Falls, SD

Home | Current Version | Previous Version | Text Only | Print | Product List | Glossary On
Versions: 1 2 3 4 5 6 7 8 9 10 11 12 13 14 15 16 17 18 19 20 21 22 23 24 25 26 27 28 29 30 31 32 33 34 35 36 37 38 39 40 41 42 43 44 45 46 47 48 49 50
000
ASUS43 KFSD 280802
RWRFSD

WEATHER ROUNDUP FOR SE SOUTH DAKOTA/SW MINNESOTA/NW IOWA
NATIONAL WEATHER SERVICE SIOUX FALLS SD
300 AM CDT THU AUG 28 2014

NOTE: "FAIR" INDICATES FEW OR NO CLOUDS BELOW 12,000 FEET WITH NO
SIGNIFICANT WEATHER AND OR OBSTRUCTIONS TO VISIBILITY.


SDZ038>040-050-052>070-280900-
SOUTHEAST SOUTH DAKOTA

CITY           SKY/WX    TMP DP  RH WIND       PRES   REMARKS
CHAMBERLAIN    RAIN      66  66  99 SE6       29.98F
HURON          CLOUDY    69  66  90 SE9       29.99F
MADISON        CLOUDY    66  66 100 SE9       30.04F
MITCHELL       LGT RAIN  69  67  93 SE10      29.99F
SIOUX FALLS    LGT RAIN  68  65  90 SE10      30.03F
WINNER         PTSUNNY   68  66  93 E12       29.97F
YANKTON        CLOUDY    68  66  94 E7        29.99F
$$

MNZ071-072-080-081-089-090-097-098-280900-
SOUTHWEST MINNESOTA

CITY           SKY/WX    TMP DP  RH WIND       PRES   REMARKS
FAIRMONT       MOCLDY    61  55  82 SE7       30.08F
JACKSON        CLOUDY    63  59  88 SE6       30.09F
LUVERNE        CLOUDY    68  63  83 SE8       30.05F
MARSHALL       CLOUDY    64  57  77 SE7       30.05S
MONTEVIDEO     PTCLDY    61  61 100 S6        30.06F
PIPESTONE        N/A     66  63  88 SE8       30.06S
REDWOOD FALLS  PTCLDY    63  59  87 SE8       30.07F
TRACY          CLOUDY    65  61  86 S6        30.07F
WINDOM         MOCLDY    64  59  82 SE7       30.07F
WORTHINGTON    CLOUDY    64  63  94 SE6       30.08F
$$

IAZ001>003-012>014-020>022-031-032-NEZ013-014-SDZ071-280900-
NORTHWEST IOWA

CITY           SKY/WX    TMP DP  RH WIND       PRES   REMARKS
DENISON        CLOUDY    68  68 100 VRB6      30.03F FOG
ESTHERVILLE    CLOUDY    63  61  93 SE5       30.08F
LE MARS          N/A     68  68 100 VRB6      30.03S
ORANGE CITY    CLOUDY    70  64  83 E5        30.04F
SHELDON        CLOUDY    66  64  94 E7        30.04F
SIOUX CITY     LGT RAIN  69  68  96 SE8       30.01F
SPENCER        CLOUDY    66  63  90 E7        30.07S
STORM LAKE     CLOUDY    66  66 100 SE8       30.06F
$$

ABBREVIATIONS USED IN REMARKS
   TC - TEMPERATURE IN CELSIUS
  WCI - WIND CHILL INDEX
   HX - HEAT INDEX
  VSB - VISIBILITY




USA.gov is the U.S. government's official web portal to all federal, state and local government web resources and services.